Preview of NWS' New Version of Forecast
This preview is not operational and should not be used for support decisions.

Regional Weather Roundup (RWR)

Issued by National Weather Service (NWS)

                            
000
ASUS46 KPQR 181810
RWROR 

OREGON REGIONAL WEATHER ROUNDUP
NATIONAL WEATHER SERVICE PORTLAND OR
1100 AM PDT THU APR 18 2019

NOTE: "FAIR" INDICATES FEW OR NO CLOUDS BELOW 12,000 FEET WITH
NO SIGNIFICANT WEATHER AND/OR OBSTRUCTIONS TO VISIBILITY.

ORZ001>013-181900-
NORTHWEST OREGON

  
CITY           SKY/WX    TMP DP  RH WIND       PRES   REMARKS
ASTORIA        CLOUDY    56  51  84 N5        30.22S                  
6HR MIN TEMP:  48; 6HR MAX TEMP:  56; 6HR PCP:  0.02;                

TILLAMOOK      MOSUNNY   61  52  72 N3        30.24S                  
NEWPORT        PTSUNNY   64  54  68 CALM      30.24F                  
PORTLAND       PTSUNNY   60  47  61 E3        30.24F                  
6HR MIN TEMP:  47; 6HR MAX TEMP:  61;                                

VANCOUVER WA   MOSUNNY   58  46  64 SW5       30.25F                  
6HR MIN TEMP:  44; 6HR MAX TEMP:  59;                                

SCAPPOOSE      MOSUNNY   61  47  59 CALM      30.25S                  
6HR MIN TEMP:  46; 6HR MAX TEMP:  61;                                

HILLSBORO      MOSUNNY   61  49  64 CALM      30.24S                  
6HR MIN TEMP:  44; 6HR MAX TEMP:  61; 6HR PCP: TRACE;                

AURORA         MOSUNNY   63  50  62 E3        30.25F                  
6HR MIN TEMP:  49; 6HR MAX TEMP:  63;                                

MCMINNVILLE    MOSUNNY   60  51  72 CALM      30.23F                  
6HR MIN TEMP:  45; 6HR MAX TEMP:  60;                                

SALEM          MOSUNNY   64  51  62 CALM      30.22F                  
6HR MIN TEMP:  47; 6HR MAX TEMP:  64;                                

CORVALLIS      MOSUNNY   61  53  75 CALM      30.25S                  
EUGENE         PTSUNNY   64  52  64 NW3       30.24S                  
6HR MIN TEMP:  45; 6HR MAX TEMP:  64;                                

$$

ORZ021-028-181900-
SOUTHWEST OREGON

  
CITY           SKY/WX    TMP DP  RH WIND       PRES   REMARKS
NORTH BEND     SUNNY     58  53  84 NW6       30.24R                  
6HR MIN TEMP:  48; 6HR MAX TEMP:  59; 6HR PCP: TRACE;                

BROOKINGS      SUNNY     61  53  75 W8        30.18R                  
ROSEBURG       SUNNY     65  50  58 E3        30.22F                  
6HR MIN TEMP:  48; 6HR MAX TEMP:  65;                                

SEXTON SUMMIT    N/A    N/A N/A N/A MISG      30.27S                  
GRANTS PASS    FAIR      64  46  52 CALM      30.25F                  
MEDFORD        SUNNY     62  47  57 CALM      30.24F                  
6HR MIN TEMP:  45; 6HR MAX TEMP:  62;                                

$$

ORZ014>016-041-181900-
COLUMBIA GORGE

  
CITY           SKY/WX    TMP DP  RH WIND       PRES   REMARKS
TROUTDALE      MOSUNNY   61  47  59 E8        30.24F                  
6HR MIN TEMP:  44; 6HR MAX TEMP:  62;                                

HOOD RIVER     MOSUNNY   59  43  55 MISG      30.24F                  
THE DALLES     PTSUNNY   61  46  57 NW3       30.24F                  
6HR MIN TEMP:  44; 6HR MAX TEMP:  61;                                

$$

ORZ029>031-041-044-049-050-061>064-502-503-505>511-181900-
EASTERN OREGON

  
CITY           SKY/WX    TMP DP  RH WIND       PRES   REMARKS
MADRAS         SUNNY     61  41  48 CALM      30.29S                  
REDMOND        SUNNY     66  37  34 CALM      30.27S                  
6HR MIN TEMP:  36; 6HR MAX TEMP:  67;                                

BEND           SUNNY     66  36  32 E6        30.26F                  
PRINEVILLE     SUNNY     63  39  42 VRB5      30.28S                  
KLAMATH FALLS  SUNNY     60  43  53 CALM      30.32S                  
6HR MIN TEMP:  34; 6HR MAX TEMP:  60;                                

LAKEVIEW       SUNNY     61  41  47 CALM      30.34F                  
HERMISTON      SUNNY     68  47  46 NW8       30.23F                  
6HR MIN TEMP:  43; 6HR MAX TEMP:  68;                                

PENDLETON      SUNNY     65  43  44 SE5       30.23F                  
6HR MIN TEMP:  42; 6HR MAX TEMP:  65;                                

JOHN DAY       SUNNY     60  39  45 CALM      30.31S                  
MEACHAM        MOSUNNY   61  39  44 CALM      30.28F                  
6HR MIN TEMP:  29; 6HR MAX TEMP:  61;                                

LA GRANDE      SUNNY     57  44  62 CALM      30.31F                  
6HR MIN TEMP:  33; 6HR MAX TEMP:  57;                                

BAKER CITY     SUNNY     60  31  33 VRB3      30.32F                  
6HR MIN TEMP:  31; 6HR MAX TEMP:  61;                                

BURNS          SUNNY     59  40  49 S3        30.35S                  
6HR MIN TEMP:  33; 6HR MAX TEMP:  60;                                

ROME             N/A     63  40  42 CALM      30.33S                  
6HR MIN TEMP:  35; 6HR MAX TEMP:  64;                                

ONTARIO        SUNNY     62  41  46 CALM      30.35F                  
6HR MIN TEMP:  39; 6HR MAX TEMP:  63;                                

$$